sat.trackr.live / text

‹ back to catalog

COSMOS 2595 (MOZHAETS 6)

NORAD 65589 · 2025-206A

PAYLOAD ACTIVE UNKNOWN

§ Identity

Operator
Country
CIS
Launch date
2025-09-13
Launch site
PLMSC
Launch vehicle
Mass (kg)
RCS (m²)

External: N2YO · Heavens-Above · Gunter

§ Orbital elements

Epoch: 2026-05-24T00:03:47.833344Z

Period
670.08 min
Inclination
64.6535°
Eccentricity
0.0065807
Mean motion
2.14901283 rev/d
Perigee alt
18,820.4 km
Apogee alt
19,154.2 km
Semi-major
25,365.4 km
B*
0.0000e+0
RAAN
315.6878°
Arg perigee
305.4446°
Mean anomaly
53.9403°
Rev number
543

§ Raw data

COSMOS 2595 (MOZHAETS 6)1 65589U 25206A   26144.00263696 -.00000045  00000+0  00000+0 0  99952 65589  64.6535 315.6878 0065807 305.4446  53.9403  2.14901283  5430

JSON: /api/v1/satellites/65589 · /tle

For live sub-satellite position, see the globe view (requires WebGL).

§ Visibility from observer

Set your observer location to see the next 7 days of passes ≥ 10°. The values pass through the URL so the page stays shareable.

No JS? Fill the form by hand. The geolocation button needs JavaScript.